When you browse on this site, cookies collect data to enhance your experience and personalize the content and advertising you see.
Visit our Privacy Policy to learn more. By continuing to use the site, you agree to this use of cookies and data.
  • In Czech Republic
  • List of Countries
  • For 7 days
  • Water Temperature
  • Satellite Maps
  • Weather Map
  • Weather Widgets
  • user-avatar
    Login

    Hourly Weather Graz

    Today, 19 February, Tuesday

    Time Temperature Precipitation Wind Pressure Humidity
    00:00 +6°C° 0 mm 1 mps 726 mmHg 74%
    01:00 +5°C° 0 mm 1 mps 726 mmHg 74%
    02:00 +5°C° 0 mm 1 mps 726 mmHg 74%
    03:00 +5°C° 0 mm 1 mps 726 mmHg 73%
    04:00 +5°C° 0 mm 1 mps 725 mmHg 73%
    05:00 +5°C° 0 mm 1 mps 725 mmHg 71%
    06:00 +4°C° 0 mm 1 mps 726 mmHg 68%
    07:00 +4°C° 0 mm 1 mps 726 mmHg 62%
    08:00 +6°C° 0 mm 1 mps 726 mmHg 56%
    09:00 +8°C° 0 mm 1 mps 726 mmHg 49%
    10:00 +10°C° 0 mm 0 mps 726 mmHg 42%
    11:00 +11°C° 0 mm 0 mps 726 mmHg 40%
    12:00 +12°C° 0 mm 0 mps 726 mmHg 37%
    13:00 +14°C° 0 mm 0 mps 727 mmHg 36%
    14:00 +15°C° 0 mm 1 mps 726 mmHg 39%
    15:00 +14°C° 0 mm 1 mps 726 mmHg 41%
    16:00 +14°C° 0 mm 1 mps 726 mmHg 44%
    17:00 +12°C° 0 mm 1 mps 726 mmHg 51%
    18:00 +10°C° 0 mm 1 mps 726 mmHg 58%
    19:00 +7°C° 0 mm 0 mps 726 mmHg 65%
    20:00 +7°C° 0 mm 1 mps 727 mmHg 68%
    21:00 +7°C° 0 mm 1 mps 727 mmHg 70%
    22:00 +7°C° 0 mm 1 mps 727 mmHg 73%
    23:00 +6°C° 0 mm 1 mps 727 mmHg 73%

    Tomorrow, 20 February, Wednesday

    Time Temperature Precipitation Wind Pressure Humidity
    00:00 +6°C° 0 mm 1 mps 727 mmHg 74%
    01:00 +6°C° 0 mm 1 mps 727 mmHg 74%
    02:00 +6°C° 0 mm 1 mps 727 mmHg 74%
    03:00 +5°C° 0 mm 1 mps 728 mmHg 74%
    04:00 +5°C° 0 mm 1 mps 728 mmHg 75%
    05:00 +5°C° 0 mm 1 mps 728 mmHg 77%
    06:00 +5°C° 0 mm 1 mps 728 mmHg 79%
    07:00 +5°C° 0 mm 1 mps 728 mmHg 81%
    08:00 +6°C° 0 mm 1 mps 728 mmHg 75%
    09:00 +7°C° 0 mm 0 mps 729 mmHg 69%
    10:00 +9°C° 0 mm 0 mps 729 mmHg 63%
    11:00 +10°C° 0 mm 0 mps 729 mmHg 60%
    12:00 +11°C° 0 mm 0 mps 729 mmHg 58%
    13:00 +13°C° 0 mm 1 mps 729 mmHg 55%
    14:00 +12°C° 0 mm 1 mps 729 mmHg 56%
    15:00 +12°C° 0 mm 1 mps 729 mmHg 57%
    16:00 +12°C° 0 mm 1 mps 729 mmHg 59%
    17:00 +10°C° 0 mm 0 mps 729 mmHg 65%
    18:00 +8°C° 0 mm 0 mps 729 mmHg 71%
    19:00 +7°C° 0 mm 0 mps 730 mmHg 77%
    20:00 +7°C° 0 mm 0 mps 730 mmHg 79%
    21:00 +7°C° 0 mm 1 mps 730 mmHg 81%
    22:00 +7°C° 0 mm 1 mps 731 mmHg 83%
    23:00 +6°C° 0 mm 1 mps 731 mmHg 84%

    Day after tomorrow, 21 February, Thursday

    Time Temperature Precipitation Wind Pressure Humidity
    00:00 +6°C° 0 mm 1 mps 731 mmHg 85%
    01:00 +6°C° 0 mm 1 mps 731 mmHg 86%
    02:00 +5°C° 0 mm 1 mps 731 mmHg 86%
    03:00 +5°C° 0 mm 1 mps 731 mmHg 86%
    04:00 +5°C° 0 mm 1 mps 731 mmHg 87%
    05:00 +5°C° 0 mm 1 mps 731 mmHg 87%
    06:00 +5°C° 0 mm 1 mps 731 mmHg 87%
    07:00 +4°C° 0 mm 1 mps 732 mmHg 87%
    08:00 +6°C° 0 mm 1 mps 732 mmHg 78%
    09:00 +9°C° 0 mm 1 mps 732 mmHg 70%
    10:00 +10°C° 0 mm 0 mps 732 mmHg 62%
    11:00 +11°C° 0 mm 0 mps 732 mmHg 56%
    12:00 +12°C° 0 mm 0 mps 732 mmHg 51%
    13:00 +14°C° 0 mm 0 mps 732 mmHg 45%
    14:00 +14°C° 0 mm 0 mps 731 mmHg 45%
    15:00 +13°C° 0 mm 0 mps 731 mmHg 45%
    16:00 +13°C° 0 mm 0 mps 731 mmHg 45%
    17:00 +13°C° 0 mm 1 mps 731 mmHg 52%
    18:00 +11°C° 0 mm 1 mps 731 mmHg 59%
    19:00 +9°C° 0 mm 1 mps 731 mmHg 66%
    20:00 +9°C° 0 mm 1 mps 731 mmHg 69%
    21:00 +8°C° 0 mm 1 mps 731 mmHg 72%
    22:00 +7°C° 0 mm 2 mps 732 mmHg 75%
    23:00 +6°C° 0 mm 2 mps 731 mmHg 76%

    22 February, Friday

    Time Temperature Precipitation Wind Pressure Humidity
    00:00 +7°C° 0 mm 1 mps 731 mmHg 78%
    01:00 +7°C° 0 mm 1 mps 731 mmHg 79%
    02:00 +7°C° 0 mm 1 mps 731 mmHg 79%
    03:00 +7°C° 0 mm 1 mps 731 mmHg 80%
    04:00 +7°C° 0 mm 1 mps 731 mmHg 80%
    05:00 +5°C° 0 mm 2 mps 731 mmHg 81%
    06:00 +5°C° 0 mm 2 mps 731 mmHg 81%
    07:00 +5°C° 0 mm 2 mps 731 mmHg 82%
    08:00 +7°C° 0 mm 2 mps 732 mmHg 75%
    09:00 +8°C° 0 mm 2 mps 732 mmHg 67%
    10:00 +10°C° 0 mm 3 mps 732 mmHg 60%
    11:00 +11°C° 0 mm 4 mps 732 mmHg 56%
    12:00 +12°C° 0 mm 4 mps 732 mmHg 52%
    13:00 +12°C° 0 mm 5 mps 732 mmHg 49%
    14:00 +12°C° 0 mm 5 mps 732 mmHg 51%
    15:00 +10°C° 0 mm 5 mps 732 mmHg 53%
    16:00 +11°C° 0 mm 4 mps 732 mmHg 55%
    17:00 +10°C° 0 mm 3 mps 733 mmHg 61%
    18:00 +8°C° 0 mm 2 mps 733 mmHg 67%
    19:00 +8°C° 0 mm 1 mps 734 mmHg 73%
    20:00 +7°C° 0 mm 1 mps 735 mmHg 76%
    21:00 +7°C° 0 mm 1 mps 735 mmHg 79%
    22:00 +6°C° 0 mm 1 mps 736 mmHg 81%
    23:00 +5°C° 0 mm 1 mps 736 mmHg 80%

    23 February, Saturday

    Time Temperature Precipitation Wind Pressure Humidity
    00:00 +4°C° 0 mm 1 mps 737 mmHg 79%
    01:00 +4°C° 0 mm 1 mps 737 mmHg 78%
    02:00 +3°C° 0 mm 1 mps 737 mmHg 76%
    03:00 +2°C° 0 mm 1 mps 737 mmHg 74%
    04:00 +1°C° 0 mm 1 mps 737 mmHg 72%
    05:00 +1°C° 0 mm 1 mps 737 mmHg 71%
    06:00 0°C° 0 mm 1 mps 737 mmHg 70%
    07:00 0°C° 0 mm 1 mps 738 mmHg 69%
    08:00 +1°C° 0 mm 1 mps 738 mmHg 64%
    09:00 +2°C° 0 mm 1 mps 738 mmHg 59%
    10:00 +4°C° 0 mm 1 mps 738 mmHg 54%
    11:00 +5°C° 0 mm 1 mps 738 mmHg 49%
    12:00 +6°C° 0 mm 1 mps 737 mmHg 44%
    13:00 +8°C° 0 mm 1 mps 737 mmHg 39%
    14:00 +7°C° 0 mm 1 mps 737 mmHg 40%
    15:00 +7°C° 0 mm 1 mps 736 mmHg 40%
    16:00 +7°C° 0 mm 1 mps 736 mmHg 41%
    17:00 +5°C° 0 mm 1 mps 736 mmHg 46%
    18:00 +4°C° 0 mm 1 mps 736 mmHg 51%
    19:00 +1°C° 0 mm 0 mps 736 mmHg 57%
    20:00 +1°C° 0 mm 0 mps 736 mmHg 57%
    21:00 +1°C° 0 mm 0 mps 736 mmHg 57%
    22:00 0°C° 0 mm 0 mps 736 mmHg 57%
    23:00 +1°C° 0 mm 0 mps 736 mmHg 55%

    24 February, Sunday

    Time Temperature Precipitation Wind Pressure Humidity
    00:00 +1°C° 0 mm 0 mps 735 mmHg 54%
    01:00 +2°C° 0 mm 1 mps 735 mmHg 52%
    02:00 +2°C° 0 mm 1 mps 735 mmHg 50%
    03:00 +2°C° 0 mm 1 mps 734 mmHg 49%
    04:00 +2°C° 0 mm 1 mps 734 mmHg 48%
    05:00 +2°C° 0 mm 1 mps 734 mmHg 48%
    06:00 +2°C° 0 mm 1 mps 734 mmHg 48%
    07:00 +2°C° 0 mm 1 mps 734 mmHg 48%
    08:00 +4°C° 0 mm 1 mps 734 mmHg 45%
    09:00 +6°C° 0 mm 1 mps 735 mmHg 41%
    10:00 +7°C° 0 mm 1 mps 735 mmHg 37%
    11:00 +9°C° 0 mm 1 mps 735 mmHg 38%
    12:00 +9°C° 0 mm 2 mps 735 mmHg 38%
    13:00 +10°C° 0 mm 2 mps 735 mmHg 39%
    14:00 +9°C° 0 mm 2 mps 735 mmHg 41%
    15:00 +9°C° 0 mm 2 mps 734 mmHg 43%
    16:00 +9°C° 0 mm 2 mps 734 mmHg 45%
    17:00 +7°C° 0 mm 2 mps 735 mmHg 54%
    18:00 +6°C° 0 mm 1 mps 735 mmHg 63%
    19:00 +4°C° 0 mm 1 mps 735 mmHg 72%
    20:00 +3°C° 0 mm 1 mps 736 mmHg 74%
    21:00 +3°C° 0 mm 1 mps 736 mmHg 77%
    22:00 +2°C° 0 mm 1 mps 736 mmHg 79%
    23:00 +2°C° 0 mm 1 mps 736 mmHg 80%
    Show more